Regional Weather Roundup
Issued by NWS Boston, MA

Home | Current Version | Previous Version | Text Only | Print | Product List | Glossary On
Versions: 1 2 3 4 5 6 7 8 9 10 11 12 13 14 15 16 17 18 19 20 21 22 23 24 25 26 27 28 29 30 31 32 33 34 35 36 37 38 39 40 41 42 43 44 45 46 47 48 49 50
000
ASUS41 KBOX 211010
RWRBOX

REGIONAL WEATHER ROUNDUP
NATIONAL WEATHER SERVICE TAUNTON MA
600 AM EDT TUE OCT 21 2014

NOTE:  "FAIR" INDICATES FEW OR NO CLOUDS BELOW 12,000 FEET WITH NO
SIGNIFICANT WEATHER AND/OR OBSTRUCTIONS TO VISIBILITY.  THE FOLLOWING
OBSERVATION LOCATIONS DO NOT REPORT PRESENT WEATHER...PROVINCETOWN...
SMITHFIELD...BLOCK ISLAND...KEENE...AND OXFORD.

MAZALL-211100-
EASTERN MASSACHUSETTS

CITY           SKY/WX    TMP DP  RH WIND       PRES   REMARKS
BOSTON         CLOUDY    52  50  93 CALM      29.98S
BEVERLY        MOCLDY    46  43  89 CALM      29.97F
LAWRENCE       MOCLDY    44  41  89 NE6       29.99F
BEDFORD        CLOUDY    42  40  92 CALM      29.96S
BLUE HILL        N/A     51  48  89 E6        29.95F
NORWOOD        CLOUDY    46  44  93 CALM      29.96F
MARSHFIELD     NOT AVBL
PLYMOUTH       CLOUDY    46  46 100 SE5       29.98S
TAUNTON        CLOUDY    46  44  93 CALM      29.97S
NEW BEDFORD    CLOUDY    45  44  97 CALM      29.95F
$$

MAZALL-211100-
CAPE COD AND THE ISLANDS

CITY           SKY/WX    TMP DP  RH WIND       PRES   REMARKS
FALMOUTH       CLOUDY    52  50  93 CALM      29.97F
HYANNIS        CLOUDY    58  52  80 SE6       29.96F
CHATHAM        CLOUDY    56  50  80 SE6       30.00S
PROVINCETOWN   MOCLDY    54  48  82 SE6       29.99S
NANTUCKET      CLOUDY    56  53  90 E9        29.98F
MARTHAS VNYRD  CLOUDY    57  53  86 SE6       29.97S
$$

MAZALL-211100-
CENTRAL AND WESTERN MASSACHUSETTS

CITY           SKY/WX    TMP DP  RH WIND       PRES   REMARKS
WORCESTER      CLOUDY    45  41  86 CALM      29.95S
FITCHBURG      CLOUDY    45  40  82 CALM      29.98S
ORANGE         MOCLDY    43  41  93 CALM      29.94S
SPRINGFIELD    CLOUDY    43  41  91 NE2       29.93S
WESTFIELD      MOCLDY    44  41  89 NE3       29.93S
NORTH ADAMS    CLOUDY    47  41  80 SE6       29.92S
PITTSFIELD     CLOUDY    43  42  97 CALM      29.90F
$$

RIZALL-211100-
RHODE ISLAND

CITY           SKY/WX    TMP DP  RH WIND       PRES   REMARKS
PROVIDENCE     CLOUDY    48  46  93 N3        29.95F
NEWPORT        CLOUDY    56  51  84 CALM      29.95F
BLOCK ISLAND   CLOUDY    55  52  88 SE6       29.93F
SMITHFIELD     CLOUDY    48  41  76 SE3       29.94F
WESTERLY       CLOUDY    50  49  96 CALM      29.94F
$$

CTZALL-211100-
CONNECTICUT

CITY           SKY/WX    TMP DP  RH WIND       PRES   REMARKS
BRADLEY INTL   CLOUDY    45  41  86 CALM      29.92S
HARTFORD       CLOUDY    47  44  90 VRB3      29.93S
BRIDGEPORT     CLOUDY    52  48  86 NE3       29.91S
DANBURY        MOCLDY    43  31  62 CALM      29.93R
GROTON         CLOUDY    48  48 100 N5        29.93S
NEW HAVEN      CLOUDY    51  46  83 N3        29.91F
CHESTER        NOT AVBL
MERIDEN        CLOUDY    45  42  89 N3        29.93S
WILLIMANTIC    CLOUDY    41  38  89 CALM      29.95S
OXFORD         MOCLDY    46  39  76 CALM      29.91S
$$

MEZ002-015-021-024-NHZ003-005-008-011-012-014-VTZ005-008-211100-
NORTHERN NEW ENGLAND

CITY           SKY/WX    TMP DP  RH WIND       PRES   REMARKS
PORTLAND ME    CLOUDY    47  42  83 CALM      30.01F
BANGOR ME      CLOUDY    42  37  82 CALM      30.06R
CONCORD NH     CLOUDY    43  42  97 N3        29.97S
MANCHESTER NH  CLOUDY    47  38  71 CALM      29.97R
NASHUA NH      CLOUDY    45  42  89 CALM      29.98S
PORTSMOUTH NH  MOCLDY    46  40  77 NE2       29.99S
JAFFREY NH     CLOUDY    42  40  92 CALM      29.96S
KEENE NH       CLOUDY    45  36  70 CALM      29.95S
BURLINGTON VT  LGT RAIN  45  42  89 E3        29.93S
MT. WASHINGTON SNOW      28  28 100 W32         N/A  VSB 1/16WCI  12
$$

NYZ052-076-211100-
EASTERN NEW YORK

CITY           SKY/WX    TMP DP  RH WIND       PRES   REMARKS
ALBANY         LGT RAIN  49  45  86 CALM      29.90S
NEW YORK CITY  CLOUDY    57  46  66 S3        29.90S
$$

ANZALL-211100-
MARINE OBSERVATIONS

STATION/POSITION TIME  TEMP    WIND        PRES    VSBY  WAVE
                       AIR SEA DIR/SP/G                  HT/PER
                 (UTC) (F)     (DEG/KT/KT) (MB)    (MI)  (FT/S)
BOSTON BUOY      NOT AVBL
BUZZARDS BAY     NOT AVBL
NANTUCKET SOUND  NOT AVBL
MASS BAY-STELLWA NOT AVBL
ISLE OF SHOALS   NOT AVBL
S OF BLOCK IS    NOT AVBL
$$

......................KEY.........................
  SKY/WX - SKY CONDITION/PRESENT WEATHER
  TMP    - TEMPERATURE IN FAHRENHEIT
  DWPT   - DEWPOINT IN FAHRENHEIT
  RH     - RELATIVE HUMIDITY IN PERCENT
  WIND   - DIRECTION AND SPEED IN MPH
  PRES   - MEAN SEA LEVEL PRESSURE IN INCHES OF HG
  WCI    - WIND CHILL INDEX
  VSB    - VISIBILITY IN MILES
  HX     - HEAT INDEX
  TC     - TEMPERATURE IN CELSIUS
  VRB    - VARIABLE WIND DIRECTION
  N/A    - NOT AVAILABLE


USA.gov is the U.S. government's official web portal to all federal, state and local government web resources and services.